When you browse on this site, cookies collect data to enhance your experience and personalize the content and advertising you see.
Visit our Privacy Policy to learn more. By continuing to use the site, you agree to this use of cookies and data.
  • In Hungary
  • List of Countries
  • For 7 days
  • Water Temperature
  • Satellite Maps
  • Weather Map
  • News
  • Weather Widgets
  • user-avatar
    Login

    Hourly Weather David

    Today, 20 January, Sunday

    Time Temperature Precipitation Wind Pressure Humidity
    00:00 +26°C° 0 mm 2 mps 754 mmHg 69%
    01:00 +26°C° 0 mm 2 mps 754 mmHg 69%
    02:00 +26°C° 0 mm 2 mps 754 mmHg 70%
    03:00 +26°C° 0 mm 2 mps 754 mmHg 71%
    04:00 +26°C° 0 mm 2 mps 754 mmHg 73%
    05:00 +26°C° 0 mm 2 mps 754 mmHg 73%
    06:00 +26°C° 0 mm 2 mps 754 mmHg 73%
    07:00 +25°C° 0 mm 2 mps 754 mmHg 73%
    08:00 +28°C° 0 mm 2 mps 755 mmHg 65%
    09:00 +30°C° 0 mm 2 mps 755 mmHg 57%
    10:00 +34°C° 0 mm 2 mps 756 mmHg 49%
    11:00 +35°C° 0 mm 3 mps 755 mmHg 47%
    12:00 +36°C° 0 mm 3 mps 755 mmHg 45%
    13:00 +37°C° 0 mm 4 mps 755 mmHg 42%
    14:00 +36°C° 0 mm 3 mps 754 mmHg 44%
    15:00 +36°C° 0 mm 3 mps 754 mmHg 46%
    16:00 +35°C° 0 mm 3 mps 753 mmHg 48%
    17:00 +33°C° 0 mm 3 mps 753 mmHg 54%
    18:00 +30°C° 0 mm 3 mps 753 mmHg 60%
    19:00 +28°C° 0 mm 2 mps 754 mmHg 66%
    20:00 +28°C° 0 mm 3 mps 754 mmHg 65%
    21:00 +28°C° 0 mm 3 mps 755 mmHg 63%
    22:00 +28°C° 0 mm 3 mps 755 mmHg 62%
    23:00 +28°C° 0 mm 3 mps 755 mmHg 62%

    Tomorrow, 21 January, Monday

    Time Temperature Precipitation Wind Pressure Humidity
    00:00 +28°C° 0 mm 3 mps 755 mmHg 63%
    01:00 +27°C° 0 mm 3 mps 755 mmHg 64%
    02:00 +27°C° 0 mm 3 mps 755 mmHg 63%
    03:00 +27°C° 0 mm 3 mps 754 mmHg 61%
    04:00 +27°C° 0 mm 3 mps 754 mmHg 60%
    05:00 +27°C° 0 mm 3 mps 754 mmHg 60%
    06:00 +27°C° 0 mm 3 mps 755 mmHg 60%
    07:00 +28°C° 0 mm 3 mps 755 mmHg 59%
    08:00 +29°C° 0 mm 4 mps 755 mmHg 55%
    09:00 +32°C° 0 mm 4 mps 756 mmHg 51%
    10:00 +34°C° 0 mm 5 mps 756 mmHg 46%
    11:00 +35°C° 0 mm 5 mps 756 mmHg 44%
    12:00 +36°C° 0 mm 5 mps 755 mmHg 42%
    13:00 +38°C° 0 mm 6 mps 755 mmHg 40%
    14:00 +36°C° 0 mm 5 mps 754 mmHg 42%
    15:00 +36°C° 0 mm 5 mps 754 mmHg 43%
    16:00 +35°C° 0 mm 4 mps 753 mmHg 45%
    17:00 +33°C° 0 mm 4 mps 753 mmHg 50%
    18:00 +30°C° 0 mm 4 mps 754 mmHg 56%
    19:00 +28°C° 0 mm 4 mps 754 mmHg 61%
    20:00 +28°C° 0 mm 4 mps 754 mmHg 60%
    21:00 +28°C° 0 mm 4 mps 755 mmHg 59%
    22:00 +27°C° 0 mm 4 mps 756 mmHg 58%
    23:00 +27°C° 0 mm 3 mps 755 mmHg 59%

    Day after tomorrow, 22 January, Tuesday

    Time Temperature Precipitation Wind Pressure Humidity
    00:00 +27°C° 0 mm 3 mps 755 mmHg 60%
    01:00 +27°C° 0 mm 3 mps 755 mmHg 62%
    02:00 +27°C° 0 mm 3 mps 755 mmHg 63%
    03:00 +26°C° 0 mm 3 mps 754 mmHg 64%
    04:00 +26°C° 0 mm 2 mps 754 mmHg 64%
    05:00 +26°C° 0 mm 2 mps 754 mmHg 65%
    06:00 +26°C° 0 mm 2 mps 754 mmHg 66%
    07:00 +26°C° 0 mm 2 mps 755 mmHg 67%
    08:00 +28°C° 0 mm 3 mps 755 mmHg 60%
    09:00 +31°C° 0 mm 3 mps 756 mmHg 53%
    10:00 +34°C° 0 mm 3 mps 756 mmHg 47%
    11:00 +35°C° 0 mm 3 mps 755 mmHg 43%
    12:00 +36°C° 0 mm 3 mps 755 mmHg 39%
    13:00 +37°C° 0 mm 4 mps 754 mmHg 35%
    14:00 +37°C° 0 mm 3 mps 753 mmHg 36%
    15:00 +36°C° 0 mm 3 mps 753 mmHg 38%
    16:00 +36°C° 0 mm 3 mps 752 mmHg 39%
    17:00 +34°C° 0 mm 3 mps 752 mmHg 47%
    18:00 +30°C° 0 mm 3 mps 753 mmHg 55%
    19:00 +28°C° 0 mm 3 mps 753 mmHg 63%
    20:00 +28°C° 0 mm 3 mps 754 mmHg 62%
    21:00 +27°C° 0 mm 3 mps 754 mmHg 61%
    22:00 +27°C° 0 mm 2 mps 755 mmHg 59%
    23:00 +27°C° 0 mm 2 mps 755 mmHg 61%

    23 January, Wednesday

    Time Temperature Precipitation Wind Pressure Humidity
    00:00 +27°C° 0 mm 2 mps 755 mmHg 63%
    01:00 +26°C° 0 mm 2 mps 755 mmHg 65%
    02:00 +26°C° 0 mm 2 mps 754 mmHg 66%
    03:00 +26°C° 0 mm 2 mps 754 mmHg 67%
    04:00 +26°C° 0 mm 2 mps 753 mmHg 69%
    05:00 +26°C° 0 mm 2 mps 754 mmHg 69%
    06:00 +26°C° 0 mm 2 mps 754 mmHg 70%
    07:00 +26°C° 0 mm 2 mps 754 mmHg 70%
    08:00 +28°C° 0 mm 2 mps 755 mmHg 64%
    09:00 +31°C° 0 mm 2 mps 755 mmHg 58%
    10:00 +34°C° 0 mm 2 mps 755 mmHg 52%
    11:00 +35°C° 0 mm 2 mps 755 mmHg 49%
    12:00 +36°C° 0 mm 3 mps 754 mmHg 47%
    13:00 +37°C° 0 mm 3 mps 754 mmHg 44%
    14:00 +36°C° 0 mm 3 mps 753 mmHg 47%
    15:00 +36°C° 0 mm 3 mps 752 mmHg 50%
    16:00 +35°C° 0 mm 3 mps 752 mmHg 53%
    17:00 +32°C° 0 mm 2 mps 752 mmHg 61%
    18:00 +30°C° 0 mm 2 mps 752 mmHg 69%
    19:00 +28°C° 0 mm 2 mps 753 mmHg 77%
    20:00 +28°C° 0 mm 2 mps 753 mmHg 76%
    21:00 +27°C° 0 mm 2 mps 754 mmHg 75%
    22:00 +27°C° 0 mm 2 mps 754 mmHg 74%
    23:00 +27°C° 0 mm 2 mps 754 mmHg 73%

    24 January, Thursday

    Time Temperature Precipitation Wind Pressure Humidity
    00:00 +27°C° 0 mm 2 mps 754 mmHg 71%
    01:00 +26°C° 0 mm 2 mps 754 mmHg 69%
    02:00 +26°C° 0 mm 2 mps 753 mmHg 69%
    03:00 +26°C° 0 mm 2 mps 753 mmHg 69%
    04:00 +26°C° 0 mm 2 mps 753 mmHg 69%
    05:00 +26°C° 0 mm 2 mps 753 mmHg 69%
    06:00 +26°C° 0 mm 2 mps 753 mmHg 69%
    07:00 +26°C° 0 mm 2 mps 754 mmHg 69%
    08:00 +28°C° 0 mm 2 mps 754 mmHg 62%
    09:00 +31°C° 0 mm 1 mps 755 mmHg 56%
    10:00 +33°C° 0 mm 1 mps 755 mmHg 50%
    11:00 +35°C° 0 mm 2 mps 755 mmHg 50%
    12:00 +35°C° 0 mm 2 mps 754 mmHg 51%
    13:00 +36°C° 0 mm 3 mps 754 mmHg 51%
    14:00 +35°C° 0.1 mm 3 mps 753 mmHg 54%
    15:00 +35°C° 0.1 mm 2 mps 753 mmHg 57%
    16:00 +34°C° 0.1 mm 2 mps 752 mmHg 59%
    17:00 +32°C° 0.3 mm 2 mps 752 mmHg 67%
    18:00 +30°C° 0.3 mm 2 mps 753 mmHg 74%
    19:00 +28°C° 0.3 mm 2 mps 753 mmHg 81%
    20:00 +28°C° 0.1 mm 2 mps 754 mmHg 81%
    21:00 +28°C° 0.1 mm 2 mps 754 mmHg 81%
    22:00 +27°C° 0.1 mm 2 mps 755 mmHg 81%
    23:00 +27°C° 0 mm 2 mps 755 mmHg 79%

    25 January, Friday

    Time Temperature Precipitation Wind Pressure Humidity
    00:00 +27°C° 0 mm 2 mps 755 mmHg 77%
    01:00 +27°C° 0 mm 2 mps 754 mmHg 76%
    02:00 +26°C° 0 mm 2 mps 754 mmHg 75%
    03:00 +26°C° 0 mm 2 mps 754 mmHg 74%
    04:00 +26°C° 0 mm 2 mps 754 mmHg 73%
    05:00 +26°C° 0 mm 2 mps 754 mmHg 73%
    06:00 +26°C° 0 mm 1 mps 754 mmHg 73%
    07:00 +26°C° 0 mm 1 mps 755 mmHg 74%
    08:00 +29°C° 0 mm 1 mps 755 mmHg 66%
    09:00 +31°C° 0 mm 1 mps 756 mmHg 58%
    10:00 +33°C° 0 mm 1 mps 756 mmHg 51%
    11:00 +35°C° 0 mm 2 mps 755 mmHg 49%
    12:00 +36°C° 0 mm 3 mps 755 mmHg 47%
    13:00 +36°C° 0 mm 3 mps 754 mmHg 46%
    14:00 +36°C° 0 mm 3 mps 754 mmHg 47%
    15:00 +36°C° 0 mm 3 mps 753 mmHg 49%
    16:00 +35°C° 0 mm 3 mps 752 mmHg 51%
    17:00 +32°C° 0 mm 2 mps 753 mmHg 59%
    18:00 +30°C° 0 mm 2 mps 753 mmHg 66%
    19:00 +28°C° 0 mm 2 mps 753 mmHg 73%
    20:00 +28°C° 0 mm 2 mps 754 mmHg 73%
    21:00 +28°C° 0 mm 2 mps 755 mmHg 72%
    22:00 +27°C° 0 mm 2 mps 755 mmHg 72%
    23:00 +27°C° 0 mm 2 mps 755 mmHg 70%
    Show more